QPF
0.06 0.04 0.00 0.00 0.01 0.02 0.00 0.00 0.00 0.00 0.00 0.00 0.00 0.00 0.00 0.00 0.00 0.00 0.00 0.00 0.00 0.00 0.00 0.00 0.00 0.00 0.00 0.00 0.00 0.00 0.00 0.00 0.00 0.00 0.00 0.00 0.00 0.00 0.00 0.00 0.00 0.00 0.00 0.00
0.05 0.03 0.00 0.00 0.01 0.02 0.00 0.00 0.00 0.00 0.00 0.00 0.00 0.00 0.00 0.00 0.00 0.00 0.00 0.00 0.00 0.00 0.00 0.00 0.00 0.00 0.00 0.00 0.00 0.00 0.00 0.00 0.00 0.00 0.00 0.00 0.00 0.00 0.00 0.00 0.00 0.00 0.00 0.00
0.03 0.02 0.01 0.01 0.01 0.01 0.00 0.00 0.00 0.00 0.00 0.00 0.00 0.00 0.00 0.00 0.00 0.00 0.00 0.00 0.00 0.00 0.00 0.00 0.00 0.00 0.00 0.00 0.00 0.00 0.00 0.00 0.00 0.00 0.00 0.00 0.00 0.00 0.00 0.00 0.00 0.00 0.00 0.00
0.04 0.02 0.01 0.01 0.02 0.01 0.00 0.00 0.00 0.00 0.00 0.00 0.00 0.00 0.00 0.00 0.00 0.00 0.00 0.00 0.00 0.00 0.00 0.00 0.00 0.00 0.00 0.00 0.00 0.00 0.00 0.00 0.00 0.00 0.00 0.00 0.00 0.00 0.00 0.00 0.00 0.00 0.00 0.00
0.03 0.02 0.01 0.00 0.02 0.01 0.00 0.00 0.00 0.00 0.00 0.00 0.00 0.00 0.00 0.00 0.00 0.00 0.00 0.00 0.00 0.00 0.00 0.00 0.00 0.00 0.00 0.00 0.00 0.00 0.00 0.00 0.00 0.00 0.00 0.00 0.00 0.00 0.00 0.00 0.00 0.00 0.00 0.00
0.03 0.02 0.01 0.01 0.01 0.01 0.00 0.00 0.00 0.00 0.00 0.00 0.00 0.00 0.00 0.00 0.00 0.00 0.00 0.00 0.00 0.00 0.00 0.00 0.00 0.00 0.00 0.00 0.00 0.00 0.00 0.00 0.00 0.00 0.00 0.00 0.00 0.00 0.00 0.00 0.00 0.00 0.00 0.00
0.01 0.01 0.01 0.01 0.00 0.00 0.00 0.00 0.00 0.00 0.00 0.00 0.00 0.00 0.00 0.00 0.00 0.00 0.00 0.00 0.00 0.00 0.00 0.00 0.00 0.00 0.00 0.00 0.00 0.00 0.00 0.00 0.00 0.00 0.00 0.00 0.00 0.00 0.00 0.00 0.00 0.00 0.00 0.00
0.01 0.01 0.00 0.00 0.00 0.00 0.00 0.00 0.00 0.00 0.00 0.00 0.00 0.00 0.00 0.00 0.00 0.00 0.00 0.00 0.00 0.00 0.00 0.00 0.00 0.00 0.00 0.00 0.00 0.00 0.00 0.00 0.00 0.00 0.00 0.00 0.00 0.00 0.00 0.00 0.00 0.00 0.00 0.00
0.00 0.01 0.00 0.00 0.00 0.00 0.00 0.00 0.00 0.00 0.00 0.00 0.00 0.00 0.00 0.00 0.00 0.00 0.00 0.00 0.00 0.00 0.00 0.00 0.00 0.00 0.00 0.00 0.00 0.00 0.00 0.00 0.00 0.00 0.00 0.00 0.00 0.00 0.00 0.00 0.00 0.00 0.00 0.00
0.00 0.01 0.02 0.01 0.00 0.00 0.00 0.00 0.00 0.00 0.00 0.00 0.00 0.00 0.00 0.00 0.00 0.00 0.00 0.00 0.00 0.00 0.00 0.00 0.00 0.00 0.00 0.00 0.00 0.00 0.00 0.00 0.00 0.00 0.00 0.00 0.00 0.00 0.00 0.00 0.00 0.00 0.00 0.00
0.00 0.00 0.01 0.01 0.00 0.00 0.00 0.00 0.00 0.00 0.00 0.00 0.00 0.00 0.00 0.00 0.00 0.00 0.00 0.00 0.00 0.00 0.00 0.00 0.00 0.00 0.00 0.00 0.00 0.00 0.00 0.00 0.00 0.00 0.00 0.00 0.00 0.00 0.00 0.00 0.00 0.00 0.00 0.00
0.00 0.01 0.00 0.00 0.00 0.00 0.00 0.00 0.00 0.00 0.00 0.00 0.00 0.00 0.00 0.00 0.00 0.00 0.00 0.00 0.00 0.00 0.00 0.00 0.00 0.00 0.00 0.00 0.00 0.00 0.00 0.00 0.00 0.00 0.00 0.00 0.00 0.00 0.00 0.00 0.00 0.00 0.00 0.00
0.00 0.00 0.00 0.00 0.00 0.00 0.00 0.00 0.00 0.00 0.00 0.00 0.00 0.00 0.00 0.00 0.00 0.00 0.00 0.00 0.00 0.00 0.00 0.00 0.00 0.00 0.00 0.00 0.00 0.00 0.00 0.00 0.00 0.00 0.00 0.00 0.00 0.00 0.00 0.00 0.00 0.00 0.00 0.00
0.00 0.00 0.00 0.00 0.00 0.00 0.00 0.00 0.00 0.00 0.00 0.00 0.00 0.00 0.00 0.00 0.00 0.00 0.00 0.00 0.00 0.00 0.00 0.00 0.00 0.00 0.00 0.00 0.00 0.00 0.00 0.00 0.00 0.00 0.00 0.00 0.00 0.00 0.00 0.00 0.00 0.00 0.00 0.00
0.00 0.00 0.00 0.00 0.00 0.00 0.00 0.00 0.00 0.00 0.00 0.00 0.00 0.00 0.00 0.00 0.00 0.00 0.00 0.00 0.00 0.00 0.00 0.00 0.00 0.00 0.00 0.00 0.00 0.00 0.00 0.00 0.00 0.00 0.00 0.00 0.00 0.00 0.00 0.00 0.00 0.00 0.00 0.00
0.00 0.00 0.00 0.00 0.00 0.00 0.00 0.00 0.00 0.00 0.00 0.00 0.00 0.00 0.00 0.00 0.00 0.00 0.00 0.00 0.00 0.00 0.00 0.00 0.00 0.00 0.00 0.00 0.00 0.00 0.00 0.00 0.00 0.00 0.00 0.00 0.00 0.00 0.00 0.00 0.00 0.00 0.00 0.00
0.00 0.00 0.00 0.00 0.00 0.00 0.00 0.00 0.00 0.00 0.00 0.00 0.00 0.00 0.00 0.00 0.00 0.00 0.00 0.00 0.00 0.00 0.00 0.00 0.00 0.00 0.00 0.00 0.00 0.00 0.00 0.00 0.00 0.00 0.00 0.00 0.00 0.00 0.00 0.00 0.00 0.00 0.00 0.00
0.00 0.00 0.00 0.00 0.00 0.00 0.00 0.00 0.00 0.00 0.00 0.00 0.00 0.00 0.00 0.00 0.00 0.00 0.00 0.00 0.00 0.00 0.00 0.00 0.00 0.00 0.00 0.00 0.00 0.00 0.00 0.00 0.00 0.00 0.00 0.00 0.00 0.00 0.00 0.00 0.00 0.00 0.00 0.00
0.00 0.00 0.00 0.00 0.00 0.00 0.00 0.00 0.00 0.00 0.00 0.00 0.00 0.00 0.00 0.00 0.00 0.00 0.00 0.00 0.00 0.00 0.00 0.00 0.00 0.00 0.00 0.00 0.00 0.00 0.00 0.00 0.00 0.00 0.00 0.00 0.00 0.00 0.00 0.00 0.00 0.00 0.00 0.00
0.00 0.00 0.00 0.00 0.00 0.00 0.00 0.00 0.00 0.00 0.00 0.00 0.00 0.00 0.00 0.00 0.00 0.00 0.00 0.00 0.00 0.00 0.00 0.00 0.00 0.00 0.00 0.00 0.00 0.00 0.00 0.00 0.00 0.00 0.00 0.00 0.00 0.00 0.00 0.00 0.00 0.00 0.00 0.00
0.00 0.00 0.00 0.00 0.00 0.00 0.00 0.00 0.00 0.00 0.00 0.00 0.00 0.00 0.00 0.00 0.00 0.00 0.00 0.00 0.00 0.00 0.00 0.00 0.00 0.00 0.00 0.00 0.00 0.00 0.00 0.00 0.00 0.00 0.00 0.00 0.00 0.00 0.00 0.00 0.00 0.00 0.00 0.00
0.00 0.00 0.00 0.00 0.00 0.00 0.00 0.00 0.00 0.00 0.00 0.00 0.00 0.00 0.00 0.00 0.00 0.00 0.00 0.00 0.00 0.00 0.00 0.00 0.00 0.00 0.00 0.00 0.00 0.00 0.00 0.00 0.00 0.00 0.00 0.00 0.00 0.00 0.00 0.00 0.00 0.00 0.00 0.00
0.00 0.00 0.00 0.00 0.00 0.00 0.00 0.00 0.00 0.00 0.00 0.00 0.00 0.00 0.00 0.00 0.00 0.00 0.00 0.00 0.00 0.00 0.00 0.00 0.00 0.00 0.00 0.00 0.00 0.00 0.00 0.00 0.00 0.00 0.00 0.00 0.00 0.00 0.00 0.00 0.00 0.00 0.00 0.00
0.00 0.00 0.00 0.00 0.00 0.00 0.00 0.00 0.00 0.00 0.00 0.00 0.00 0.00 0.00 0.00 0.00 0.00 0.00 0.00 0.00 0.00 0.00 0.00 0.00 0.00 0.00 0.00 0.00 0.00 0.00 0.00 0.00 0.00 0.00 0.00 0.00 0.00 0.00 0.00 0.00 0.00 0.00 0.00
0.00 0.00 0.00 0.00 0.00 0.00 0.00 0.00 0.00 0.00 0.00 0.00 0.00 0.00 0.00 0.00 0.00 0.00 0.00 0.00 0.00 0.00 0.00 0.00 0.00 0.00 0.00 0.00 0.00 0.00 0.00 0.00 0.00 0.00 0.00 0.00 0.00 0.00 0.00 0.00 0.00 0.00 0.00 0.00
0.00 0.00 0.00 0.00 0.00 0.00 0.00 0.00 0.00 0.00 0.00 0.00 0.00 0.00 0.00 0.00 0.00 0.00 0.00 0.00 0.00 0.00 0.00 0.00 0.00 0.00 0.00 0.00 0.00 0.00 0.00 0.00 0.00 0.00 0.00 0.00 0.00 0.00 0.00 0.00 0.00 0.00 0.00 0.00
0.00 0.00 0.00 0.00 0.00 0.00 0.00 0.00 0.00 0.00 0.00 0.00 0.00 0.00 0.00 0.00 0.00 0.00 0.00 0.00 0.00 0.00 0.00 0.00 0.00 0.00 0.00 0.00 0.00 0.00 0.00 0.00 0.00 0.00 0.00 0.00 0.00 0.00 0.00 0.00 0.00 0.00 0.00 0.00
MSLP
1010.69 1010.79 1010.72 1011.20 1011.61 1011.36 1011.12 1012.78 1014.28 1015.55 1015.89 1016.76 1017.60 1017.41 1016.63 1016.10 1015.90 1015.85 1016.04 1016.31 1016.62 1016.85 1017.39 1017.80 1018.24 1018.35 1017.42 1016.41 1016.08 1015.67 1015.37 1015.36 1014.99 1014.38 1013.84 1013.69 1013.60 1014.01 1013.80 1013.65 1013.98 1013.39 1012.81 1013.92
1009.88 1010.08 1010.19 1010.65 1011.36 1011.85 1011.87 1013.20 1014.56 1015.67 1015.88 1016.78 1017.50 1016.80 1016.31 1015.82 1015.81 1015.89 1016.02 1016.34 1016.43 1016.57 1016.99 1017.65 1017.79 1017.77 1016.67 1016.10 1015.63 1015.43 1014.87 1015.06 1015.29 1014.14 1013.41 1013.12 1013.50 1013.60 1013.66 1013.47 1013.41 1013.97 1013.84 1014.72
1009.15 1009.45 1009.64 1010.20 1010.56 1010.82 1011.34 1012.60 1014.63 1015.62 1016.11 1016.41 1016.70 1016.48 1016.16 1016.02 1015.81 1015.95 1016.01 1016.40 1016.44 1016.69 1017.12 1017.52 1017.70 1017.39 1016.45 1015.88 1015.43 1015.22 1015.08 1015.34 1015.52 1015.38 1014.94 1014.71 1014.05 1013.78 1013.47 1013.45 1014.05 1014.91 1015.05 1015.05
1008.39 1008.79 1009.11 1009.33 1009.36 1009.87 1010.68 1011.91 1013.37 1013.84 1015.20 1015.97 1016.29 1015.93 1015.84 1016.02 1016.07 1016.06 1016.22 1016.54 1016.68 1017.03 1017.50 1017.68 1017.62 1017.29 1016.60 1015.81 1015.43 1015.30 1015.41 1016.06 1016.06 1015.75 1015.25 1015.01 1015.02 1014.67 1014.55 1014.52 1014.91 1014.88 1015.46 1015.27
1007.41 1007.91 1008.54 1009.20 1009.32 1009.99 1011.20 1012.05 1012.75 1013.81 1014.65 1014.97 1015.91 1015.72 1015.99 1015.95 1016.18 1016.14 1016.44 1016.48 1016.74 1017.09 1017.36 1017.35 1017.38 1017.16 1016.89 1016.57 1015.94 1015.66 1015.84 1016.41 1016.37 1016.38 1015.93 1015.63 1015.32 1015.12 1014.97 1015.18 1015.20 1014.96 1014.58 1014.33
1006.74 1006.90 1007.31 1007.52 1007.14 1009.55 1010.63 1011.28 1011.70 1012.21 1014.51 1015.02 1015.31 1015.53 1015.80 1015.91 1015.99 1016.44 1016.33 1016.48 1016.90 1017.18 1017.11 1017.11 1017.22 1017.16 1016.96 1016.84 1016.69 1016.35 1016.45 1016.63 1016.68 1016.83 1016.37 1015.93 1016.09 1016.15 1015.58 1015.38 1015.37 1015.38 1015.51 1015.79
1006.11 1006.30 1006.22 1006.18 1007.16 1008.58 1009.29 1010.30 1011.04 1012.20 1014.49 1014.69 1014.99 1015.29 1015.43 1015.98 1016.13 1016.33 1016.79 1016.76 1016.97 1017.33 1017.07 1017.26 1017.22 1017.11 1017.05 1016.93 1016.91 1016.99 1017.24 1017.25 1017.16 1017.19 1016.49 1016.50 1016.55 1016.04 1015.88 1015.91 1015.89 1015.61 1015.48 1015.32
1005.47 1004.77 1003.62 1004.94 1007.04 1008.45 1009.21 1010.28 1010.65 1011.52 1014.03 1014.73 1015.32 1015.52 1015.98 1016.53 1016.68 1016.95 1017.10 1017.25 1017.43 1017.27 1017.45 1017.58 1017.64 1017.67 1017.59 1017.51 1017.48 1017.52 1017.77 1017.67 1017.75 1017.70 1017.60 1017.27 1016.40 1016.21 1015.90 1015.63 1016.15 1015.80 1015.58 1015.55
1004.90 1003.58 1004.30 1005.65 1007.32 1008.14 1009.43 1010.44 1010.46 1011.14 1013.04 1015.09 1014.97 1015.92 1016.41 1017.00 1017.37 1017.76 1017.89 1017.74 1017.52 1017.38 1017.41 1017.65 1017.94 1017.94 1017.77 1018.02 1017.99 1017.97 1018.09 1017.87 1017.95 1017.81 1017.80 1017.47 1016.95 1016.50 1016.14 1015.97 1016.48 1016.11 1015.83 1016.00
1005.43 1005.36 1005.95 1006.38 1007.44 1008.22 1009.10 1010.59 1010.48 1011.12 1013.53 1015.35 1015.35 1015.84 1016.38 1016.68 1017.24 1017.90 1018.19 1018.13 1018.05 1017.94 1018.04 1018.19 1018.29 1018.24 1017.95 1018.20 1018.25 1018.28 1018.44 1018.52 1018.72 1018.37 1018.17 1017.77 1016.96 1016.56 1016.39 1016.47 1017.40 1016.71 1016.69 1016.84
1005.60 1005.61 1006.06 1007.06 1007.83 1008.49 1009.26 1011.12 1010.85 1011.04 1013.92 1015.88 1015.86 1016.01 1016.41 1016.78 1016.85 1017.59 1018.10 1018.45 1018.63 1018.71 1018.55 1018.60 1018.63 1018.63 1018.50 1018.45 1018.28 1018.12 1018.46 1018.77 1018.90 1018.66 1018.26 1018.06 1017.12 1016.91 1016.86 1017.04 1016.92 1016.65 1016.54 1016.59
1005.54 1005.77 1006.23 1007.43 1008.21 1008.92 1009.56 1011.17 1011.19 1011.48 1013.23 1016.48 1016.53 1016.68 1016.67 1016.56 1016.47 1016.99 1017.93 1018.01 1017.81 1017.83 1018.40 1018.84 1018.92 1019.03 1019.17 1018.93 1018.80 1018.29 1018.48 1018.44 1018.45 1018.43 1018.06 1017.50 1017.44 1017.21 1017.25 1017.24 1017.19 1017.23 1017.16 1017.11
1005.89 1006.04 1006.62 1007.72 1008.61 1009.38 1010.01 1011.30 1011.74 1012.06 1014.81 1016.70 1016.84 1017.22 1016.93 1016.64 1016.74 1016.68 1017.14 1017.93 1017.59 1017.85 1017.90 1018.44 1018.91 1019.06 1019.07 1019.19 1019.00 1018.62 1018.31 1018.18 1018.31 1018.46 1018.17 1018.01 1017.91 1017.71 1017.69 1017.67 1017.58 1017.62 1017.41 1017.28
1005.55 1006.05 1007.09 1008.13 1009.10 1009.83 1010.21 1011.28 1011.74 1012.02 1014.04 1016.32 1018.02 1017.43 1017.52 1017.26 1016.79 1016.68 1016.72 1016.89 1017.57 1017.83 1018.19 1018.64 1019.07 1019.24 1019.06 1019.17 1019.01 1018.76 1018.27 1018.30 1018.30 1018.44 1018.24 1018.28 1018.17 1018.03 1018.04 1018.10 1018.04 1017.94 1017.75 1017.68
1005.18 1006.05 1007.32 1008.25 1009.30 1009.98 1010.63 1011.41 1011.86 1011.92 1012.93 1016.45 1018.15 1018.24 1018.13 1017.85 1017.33 1017.19 1017.12 1017.35 1017.87 1018.52 1018.92 1019.23 1019.49 1019.22 1019.30 1019.39 1019.20 1018.53 1017.81 1017.59 1017.84 1017.73 1017.29 1017.63 1017.86 1018.10 1018.29 1018.50 1018.46 1018.45 1018.51 1018.24
1005.64 1006.76 1007.78 1008.75 1009.52 1010.00 1010.79 1011.84 1012.37 1012.16 1012.53 1015.21 1018.17 1018.92 1018.63 1018.22 1017.93 1017.87 1017.99 1018.16 1018.56 1018.98 1019.33 1019.73 1019.61 1019.32 1019.29 1019.49 1019.25 1017.15 1017.02 1017.06 1016.99 1017.25 1017.41 1017.60 1017.92 1018.45 1018.82 1018.82 1018.65 1018.61 1018.41 1018.40
1006.68 1007.75 1008.64 1009.24 1010.12 1010.76 1011.84 1012.52 1012.67 1012.42 1012.72 1015.19 1018.33 1018.94 1018.68 1018.40 1018.33 1018.55 1018.69 1018.74 1019.18 1019.28 1019.71 1019.87 1019.76 1019.61 1019.25 1019.28 1018.71 1016.66 1016.85 1017.26 1017.45 1017.47 1017.63 1018.39 1018.58 1018.88 1018.90 1018.87 1018.92 1018.93 1018.96 1018.82
1008.04 1008.85 1009.51 1010.24 1010.31 1011.50 1012.23 1012.78 1012.55 1012.76 1013.74 1015.15 1017.61 1019.01 1018.93 1018.60 1018.91 1019.25 1019.21 1019.49 1019.63 1019.85 1020.05 1020.03 1019.85 1019.80 1019.55 1018.64 1016.72 1016.69 1017.05 1017.53 1017.73 1017.84 1017.81 1018.09 1018.63 1018.90 1019.05 1019.06 1019.09 1019.09 1019.00 1018.91
1008.84 1009.21 1009.31 1010.30 1011.56 1012.66 1012.99 1012.85 1012.90 1013.16 1014.04 1015.53 1017.14 1018.25 1018.77 1018.72 1019.09 1019.40 1019.63 1019.75 1020.25 1020.32 1020.11 1020.02 1019.97 1019.46 1018.40 1015.53 1015.66 1016.28 1016.61 1016.75 1017.17 1017.90 1018.15 1018.50 1018.74 1018.93 1019.01 1019.09 1019.29 1019.18 1019.04 1018.95
1009.11 1010.10 1011.05 1012.53 1013.24 1013.24 1013.22 1013.34 1013.39 1013.71 1014.62 1015.57 1017.05 1017.66 1018.36 1018.59 1019.10 1019.67 1020.06 1020.29 1020.56 1020.57 1020.23 1019.97 1019.76 1017.85 1015.32 1014.85 1014.88 1015.11 1015.91 1016.46 1016.98 1017.69 1018.41 1018.53 1018.76 1018.82 1018.92 1019.00 1019.13 1019.20 1019.38 1019.41
1010.68 1011.85 1012.83 1013.35 1013.19 1013.23 1013.67 1014.27 1014.53 1014.94 1015.71 1015.98 1016.97 1017.33 1017.84 1018.37 1018.63 1019.21 1019.86 1020.57 1020.89 1020.94 1020.39 1020.24 1019.52 1017.37 1014.84 1014.28 1014.75 1015.03 1015.65 1016.28 1016.73 1016.85 1017.20 1017.72 1018.13 1018.52 1018.76 1018.96 1019.28 1019.36 1019.51 1019.64
1010.84 1011.41 1012.71 1013.20 1013.40 1014.01 1014.68 1015.09 1015.45 1015.40 1015.33 1016.21 1016.59 1016.94 1017.20 1017.97 1018.03 1018.82 1019.85 1020.54 1021.10 1020.76 1020.22 1020.46 1019.04 1015.29 1014.43 1014.54 1014.91 1015.30 1015.74 1016.38 1016.97 1017.18 1017.59 1017.98 1018.27 1018.50 1018.71 1018.98 1019.30 1019.46 1019.69 1019.93
1011.07 1011.63 1012.97 1013.41 1014.20 1014.84 1015.25 1014.88 1014.93 1015.14 1015.00 1015.49 1016.04 1016.68 1017.00 1017.73 1017.91 1018.82 1019.56 1020.32 1020.70 1020.19 1020.43 1019.46 1016.45 1014.95 1014.78 1014.95 1015.26 1015.79 1016.16 1016.62 1017.09 1017.59 1017.87 1018.20 1018.48 1018.68 1018.80 1019.09 1019.34 1019.52 1019.85 1019.91
1010.87 1011.79 1013.03 1013.39 1013.67 1013.36 1012.87 1013.06 1013.01 1013.45 1013.80 1014.59 1015.30 1016.21 1016.59 1017.26 1017.91 1018.67 1019.51 1020.08 1020.08 1020.43 1020.34 1017.99 1015.88 1015.13 1015.06 1015.28 1015.57 1015.93 1016.52 1016.93 1017.34 1017.77 1018.07 1018.30 1018.45 1018.70 1018.79 1019.01 1019.25 1019.65 1020.00 1020.17
1010.94 1011.31 1011.76 1012.22 1012.08 1012.49 1012.85 1012.93 1013.35 1013.60 1013.65 1014.26 1015.21 1015.87 1016.27 1017.32 1017.99 1018.34 1019.30 1020.06 1019.78 1019.35 1017.42 1016.14 1015.27 1015.28 1015.28 1015.49 1015.78 1016.15 1016.65 1017.14 1017.67 1017.85 1018.16 1018.33 1018.50 1018.62 1018.77 1018.79 1019.08 1019.40 1019.73 1020.01
1011.37 1011.67 1011.92 1012.03 1012.32 1012.57 1012.88 1013.12 1013.47 1013.33 1013.69 1014.15 1014.51 1015.63 1016.50 1017.07 1017.34 1018.07 1018.07 1018.53 1017.80 1016.21 1015.46 1014.93 1014.91 1015.32 1015.31 1015.47 1015.76 1016.18 1016.60 1017.11 1017.56 1017.84 1018.06 1018.25 1018.37 1018.53 1018.60 1018.55 1018.75 1018.96 1019.25 1019.40
1011.72 1011.86 1011.77 1011.69 1011.75 1011.67 1012.24 1012.56 1012.92 1013.00 1013.68 1014.20 1014.83 1015.64 1016.08 1016.90 1017.25 1017.18 1017.06 1016.36 1014.89 1014.62 1014.57 1014.75 1014.72 1014.69 1015.04 1015.45 1015.77 1016.15 1016.57 1017.10 1017.52 1017.82 1018.05 1018.27 1018.25 1018.31 1018.61 1018.69 1018.54 1018.63 1018.71 1018.91
Thickness
5394 5401 5414 5423 5436 5446 5463 5460 5460 5456 5464 5468 5451 5452 5480 5498 5498 5499 5494 5487 5477 5478 5466 5463 5418 5445 5456 5461 5463 5467 5465 5453 5457 5477 5479 5481 5484 5481 5488 5492 5502 5472 5503 5504
5389 5394 5405 5419 5429 5437 5451 5454 5455 5453 5463 5460 5445 5475 5491 5499 5498 5498 5495 5488 5485 5482 5478 5457 5461 5436 5470 5470 5474 5475 5479 5464 5444 5477 5496 5495 5484 5489 5492 5484 5491 5491 5499 5510
5387 5395 5408 5420 5434 5447 5457 5457 5455 5456 5464 5464 5469 5480 5489 5491 5498 5496 5494 5487 5485 5484 5479 5459 5462 5439 5479 5481 5479 5487 5484 5478 5460 5483 5485 5482 5486 5495 5494 5479 5505 5496 5491 5508
5391 5402 5418 5433 5449 5457 5462 5461 5464 5476 5472 5471 5470 5487 5490 5489 5493 5496 5494 5489 5484 5466 5463 5468 5465 5453 5471 5486 5487 5485 5480 5475 5475 5487 5491 5491 5488 5496 5500 5491 5493 5495 5506 5504
5409 5421 5431 5441 5455 5458 5460 5462 5463 5465 5463 5470 5473 5490 5485 5493 5492 5495 5494 5494 5486 5478 5470 5465 5464 5472 5464 5455 5478 5484 5477 5464 5472 5470 5484 5485 5489 5492 5499 5500 5503 5501 5506 5511
5426 5439 5450 5460 5471 5465 5466 5469 5478 5484 5472 5473 5482 5482 5484 5495 5494 5495 5497 5492 5485 5486 5483 5477 5470 5464 5462 5469 5473 5475 5476 5470 5468 5471 5479 5492 5479 5485 5496 5504 5496 5505 5503 5507
5441 5453 5467 5478 5477 5474 5480 5482 5485 5486 5475 5486 5492 5490 5498 5493 5500 5495 5492 5493 5493 5488 5480 5476 5476 5474 5472 5471 5471 5464 5467 5468 5471 5466 5482 5474 5483 5488 5494 5495 5491 5495 5501 5504
5455 5472 5493 5493 5484 5480 5484 5484 5493 5492 5477 5482 5486 5490 5487 5485 5487 5490 5491 5489 5484 5483 5484 5484 5486 5472 5480 5472 5460 5464 5457 5461 5468 5473 5460 5480 5490 5486 5494 5502 5489 5492 5498 5502
5469 5490 5493 5489 5486 5487 5486 5486 5496 5498 5495 5486 5492 5484 5487 5480 5478 5483 5485 5486 5484 5490 5496 5490 5485 5476 5489 5477 5476 5461 5458 5452 5465 5462 5463 5479 5483 5485 5486 5492 5484 5490 5497 5496
5473 5480 5483 5489 5489 5490 5492 5489 5499 5499 5485 5478 5490 5486 5489 5487 5485 5478 5483 5486 5486 5487 5485 5485 5465 5483 5486 5480 5480 5476 5461 5458 5458 5463 5452 5466 5479 5478 5483 5485 5480 5486 5490 5488
5478 5485 5490 5487 5489 5493 5494 5489 5499 5502 5480 5475 5483 5489 5488 5488 5491 5490 5484 5487 5479 5475 5492 5485 5478 5482 5476 5478 5482 5482 5473 5458 5460 5451 5457 5461 5467 5476 5489 5476 5480 5486 5487 5487
5483 5487 5491 5490 5491 5493 5496 5492 5499 5502 5493 5474 5480 5484 5488 5493 5498 5488 5483 5493 5489 5491 5486 5477 5477 5483 5444 5468 5478 5476 5479 5471 5471 5470 5472 5464 5464 5468 5466 5466 5470 5474 5476 5475
5483 5489 5492 5490 5491 5493 5496 5493 5496 5499 5480 5474 5478 5480 5487 5492 5494 5497 5497 5487 5495 5493 5489 5482 5480 5491 5472 5467 5470 5482 5480 5470 5470 5474 5473 5469 5465 5464 5461 5461 5464 5463 5465 5468
5491 5493 5493 5491 5491 5492 5496 5496 5499 5502 5491 5480 5471 5481 5484 5488 5495 5499 5500 5500 5494 5491 5487 5487 5483 5483 5476 5471 5477 5475 5477 5477 5471 5468 5472 5469 5469 5466 5462 5460 5456 5455 5457 5459
5500 5499 5495 5493 5493 5494 5495 5497 5500 5505 5507 5480 5470 5474 5479 5484 5492 5495 5498 5497 5493 5487 5490 5486 5486 5477 5477 5467 5471 5469 5476 5482 5479 5480 5480 5476 5473 5467 5463 5460 5457 5452 5449 5452
5499 5497 5494 5492 5493 5496 5497 5498 5498 5505 5508 5490 5476 5468 5478 5483 5488 5490 5490 5489 5485 5482 5484 5477 5474 5475 5477 5474 5474 5492 5486 5485 5488 5487 5477 5476 5469 5460 5455 5456 5455 5451 5451 5448
5494 5491 5489 5491 5490 5493 5492 5497 5498 5504 5507 5490 5470 5471 5477 5483 5486 5484 5485 5484 5480 5481 5477 5478 5476 5475 5477 5474 5473 5499 5488 5483 5478 5477 5475 5470 5465 5458 5454 5453 5450 5448 5445 5441
5486 5484 5484 5484 5491 5488 5488 5490 5497 5501 5497 5491 5465 5471 5477 5483 5479 5481 5479 5480 5478 5476 5474 5472 5476 5473 5470 5479 5494 5494 5485 5478 5475 5471 5471 5467 5456 5453 5450 5447 5443 5445 5442 5439
5482 5484 5489 5486 5479 5479 5484 5489 5495 5498 5498 5481 5473 5476 5477 5478 5477 5477 5477 5476 5468 5472 5478 5476 5476 5479 5485 5513 5502 5491 5484 5487 5481 5468 5464 5458 5456 5450 5447 5444 5438 5436 5436 5437
5481 5479 5474 5466 5467 5474 5480 5484 5491 5487 5487 5486 5478 5477 5482 5478 5475 5470 5472 5472 5470 5451 5479 5472 5474 5490 5510 5509 5506 5501 5492 5486 5478 5468 5460 5457 5453 5449 5446 5444 5439 5435 5430 5426
5467 5463 5461 5462 5469 5474 5473 5471 5483 5480 5488 5485 5477 5479 5482 5478 5472 5471 5474 5461 5455 5449 5473 5470 5468 5487 5507 5508 5503 5495 5491 5482 5478 5476 5469 5460 5453 5445 5442 5438 5431 5427 5423 5419
5467 5468 5462 5463 5467 5466 5468 5462 5467 5478 5497 5477 5480 5480 5479 5476 5480 5475 5468 5456 5442 5458 5468 5460 5469 5506 5510 5501 5497 5489 5485 5477 5471 5466 5459 5452 5446 5441 5436 5431 5425 5419 5414 5408
5463 5465 5458 5463 5459 5453 5457 5474 5474 5474 5484 5484 5483 5483 5481 5477 5480 5469 5462 5444 5450 5469 5474 5471 5493 5501 5503 5494 5488 5481 5477 5471 5465 5458 5452 5445 5440 5434 5430 5423 5417 5412 5405 5402
5464 5463 5449 5457 5459 5470 5487 5494 5501 5491 5486 5489 5486 5482 5484 5481 5473 5467 5453 5465 5465 5474 5448 5475 5483 5490 5492 5487 5483 5478 5470 5465 5459 5452 5445 5439 5435 5428 5423 5416 5410 5402 5394 5389
5461 5466 5483 5472 5470 5473 5471 5470 5479 5480 5492 5486 5481 5480 5483 5469 5470 5475 5464 5467 5475 5468 5478 5486 5484 5480 5481 5481 5478 5470 5464 5458 5449 5441 5437 5431 5425 5421 5417 5411 5403 5395 5387 5380
5450 5453 5458 5462 5470 5474 5473 5470 5478 5478 5487 5481 5484 5474 5470 5468 5472 5464 5464 5461 5464 5488 5481 5483 5469 5470 5473 5477 5474 5465 5456 5448 5440 5434 5430 5426 5418 5412 5409 5404 5398 5391 5384 5378
5445 5448 5452 5456 5463 5473 5473 5474 5477 5480 5481 5480 5473 5480 5485 5463 5449 5464 5468 5474 5489 5480 5476 5471 5479 5480 5475 5470 5465 5458 5451 5444 5434 5427 5424 5416 5414 5407 5398 5390 5388 5384 5380 5372